<?xml version="1.0" encoding="UTF-8" standalone="no" ?>
<gpx xmlns="http://www.topografix.com/GPX/1/1" xmlns:xsi="http://www.w3.org/2001/XMLSchema-instance" xsi:schemaLocation="http://www.topografix.com/GPX/1/1 http://www.topografix.com/GPX/1/1/gpx.xsd" version="1.1" creator="VisuGPX - https://www.visugpx.com">
  <metadata>
    <name>Rieussec  17.1  650</name>
    <desc><![CDATA[grp_trc:]]></desc>
  </metadata>
  <trk>
    <name><![CDATA[Rieussec  17.1  650]]></name>
    <cmt><![CDATA[08:48:19]]></cmt>
    <desc><![CDATA[<html dir="ltr"><head></head><body contenteditable="true">comment ...</body></html>]]></desc>
    <trkseg>
      <trkpt lat="43.42031" lon="2.7442">
        <ele>499</ele>
        <time>2021-11-20T07:48:19Z</time>
      </trkpt>
      <trkpt lat="43.42016" lon="2.74418">
        <ele>498</ele>
        <time>2021-11-20T07:48:19Z</time>
      </trkpt>
      <trkpt lat="43.41971" lon="2.74377">
        <ele>497</ele>
        <time>2021-11-20T07:48:19Z</time>
      </trkpt>
      <trkpt lat="43.41963" lon="2.74387">
        <ele>497</ele>
        <time>2021-11-20T07:48:19Z</time>
      </trkpt>
      <trkpt lat="43.41923" lon="2.74414">
        <ele>497</ele>
        <time>2021-11-20T07:48:19Z</time>
      </trkpt>
      <trkpt lat="43.41917" lon="2.74424">
        <ele>497</ele>
        <time>2021-11-20T07:48:19Z</time>
      </trkpt>
      <trkpt lat="43.41895" lon="2.74461">
        <ele>501</ele>
        <time>2021-11-20T07:48:19Z</time>
      </trkpt>
      <trkpt lat="43.41898" lon="2.74472">
        <ele>502</ele>
        <time>2021-11-20T07:48:19Z</time>
      </trkpt>
      <trkpt lat="43.41909" lon="2.74484">
        <ele>502</ele>
        <time>2021-11-20T07:48:19Z</time>
      </trkpt>
      <trkpt lat="43.4191" lon="2.745">
        <ele>503</ele>
        <time>2021-11-20T07:48:19Z</time>
      </trkpt>
      <trkpt lat="43.41898" lon="2.7451">
        <ele>506</ele>
        <time>2021-11-20T07:48:19Z</time>
      </trkpt>
      <trkpt lat="43.41892" lon="2.74523">
        <ele>508</ele>
        <time>2021-11-20T07:48:19Z</time>
      </trkpt>
      <trkpt lat="43.4186" lon="2.74555">
        <ele>516</ele>
        <time>2021-11-20T07:48:19Z</time>
      </trkpt>
      <trkpt lat="43.41838" lon="2.74555">
        <ele>518</ele>
        <time>2021-11-20T07:48:19Z</time>
      </trkpt>
      <trkpt lat="43.41824" lon="2.74565">
        <ele>522</ele>
        <time>2021-11-20T07:48:19Z</time>
      </trkpt>
      <trkpt lat="43.41804" lon="2.74576">
        <ele>525</ele>
        <time>2021-11-20T07:48:19Z</time>
      </trkpt>
      <trkpt lat="43.41789" lon="2.7458">
        <ele>528</ele>
        <time>2021-11-20T07:48:19Z</time>
      </trkpt>
      <trkpt lat="43.4178" lon="2.74587">
        <ele>530</ele>
        <time>2021-11-20T07:48:19Z</time>
      </trkpt>
      <trkpt lat="43.41771" lon="2.74603">
        <ele>532</ele>
        <time>2021-11-20T07:48:19Z</time>
      </trkpt>
      <trkpt lat="43.41752" lon="2.74603">
        <ele>536</ele>
        <time>2021-11-20T07:48:19Z</time>
      </trkpt>
      <trkpt lat="43.41748" lon="2.74611">
        <ele>536</ele>
        <time>2021-11-20T07:48:19Z</time>
      </trkpt>
      <trkpt lat="43.41767" lon="2.74638">
        <ele>538</ele>
        <time>2021-11-20T07:48:19Z</time>
      </trkpt>
      <trkpt lat="43.41784" lon="2.74649">
        <ele>538</ele>
        <time>2021-11-20T07:48:19Z</time>
      </trkpt>
      <trkpt lat="43.41789" lon="2.74658">
        <ele>540</ele>
        <time>2021-11-20T07:48:19Z</time>
      </trkpt>
      <trkpt lat="43.41795" lon="2.74676">
        <ele>544</ele>
        <time>2021-11-20T07:48:19Z</time>
      </trkpt>
      <trkpt lat="43.41797" lon="2.74691">
        <ele>547</ele>
        <time>2021-11-20T07:48:19Z</time>
      </trkpt>
      <trkpt lat="43.41801" lon="2.74742">
        <ele>557</ele>
        <time>2021-11-20T07:48:19Z</time>
      </trkpt>
      <trkpt lat="43.41794" lon="2.7474">
        <ele>559</ele>
        <time>2021-11-20T07:48:19Z</time>
      </trkpt>
      <trkpt lat="43.4178" lon="2.74723">
        <ele>558</ele>
        <time>2021-11-20T07:48:19Z</time>
      </trkpt>
      <trkpt lat="43.41771" lon="2.74716">
        <ele>558</ele>
        <time>2021-11-20T07:48:19Z</time>
      </trkpt>
      <trkpt lat="43.41732" lon="2.74714">
        <ele>564</ele>
        <time>2021-11-20T07:48:19Z</time>
      </trkpt>
      <trkpt lat="43.4172" lon="2.74716">
        <ele>566</ele>
        <time>2021-11-20T07:48:19Z</time>
      </trkpt>
      <trkpt lat="43.41694" lon="2.74714">
        <ele>569</ele>
        <time>2021-11-20T07:48:19Z</time>
      </trkpt>
      <trkpt lat="43.41664" lon="2.74714">
        <ele>574</ele>
        <time>2021-11-20T07:48:19Z</time>
      </trkpt>
      <trkpt lat="43.41644" lon="2.74707">
        <ele>577</ele>
        <time>2021-11-20T07:48:19Z</time>
      </trkpt>
      <trkpt lat="43.41614" lon="2.74701">
        <ele>582</ele>
        <time>2021-11-20T07:48:19Z</time>
      </trkpt>
      <trkpt lat="43.41597" lon="2.74695">
        <ele>585</ele>
        <time>2021-11-20T07:48:19Z</time>
      </trkpt>
      <trkpt lat="43.41582" lon="2.74684">
        <ele>587</ele>
        <time>2021-11-20T07:48:19Z</time>
      </trkpt>
      <trkpt lat="43.41582" lon="2.7471">
        <ele>587</ele>
        <time>2021-11-20T07:48:19Z</time>
      </trkpt>
      <trkpt lat="43.41587" lon="2.74722">
        <ele>587</ele>
        <time>2021-11-20T07:48:19Z</time>
      </trkpt>
      <trkpt lat="43.41624" lon="2.74829">
        <ele>594</ele>
        <time>2021-11-20T07:48:19Z</time>
      </trkpt>
      <trkpt lat="43.41671" lon="2.74916">
        <ele>599</ele>
        <time>2021-11-20T07:48:19Z</time>
      </trkpt>
      <trkpt lat="43.41673" lon="2.74942">
        <ele>599</ele>
        <time>2021-11-20T07:48:19Z</time>
      </trkpt>
      <trkpt lat="43.41662" lon="2.74999">
        <ele>602</ele>
        <time>2021-11-20T07:48:19Z</time>
      </trkpt>
      <trkpt lat="43.41655" lon="2.75043">
        <ele>605</ele>
        <time>2021-11-20T07:48:19Z</time>
      </trkpt>
      <trkpt lat="43.41658" lon="2.75084">
        <ele>609</ele>
        <time>2021-11-20T07:48:19Z</time>
      </trkpt>
      <trkpt lat="43.41672" lon="2.75151">
        <ele>615</ele>
        <time>2021-11-20T07:48:19Z</time>
      </trkpt>
      <trkpt lat="43.41702" lon="2.75292">
        <ele>623</ele>
        <time>2021-11-20T07:48:19Z</time>
      </trkpt>
      <trkpt lat="43.41702" lon="2.75304">
        <ele>623</ele>
        <time>2021-11-20T07:48:19Z</time>
      </trkpt>
      <trkpt lat="43.41713" lon="2.75357">
        <ele>627</ele>
        <time>2021-11-20T07:48:19Z</time>
      </trkpt>
      <trkpt lat="43.41711" lon="2.75379">
        <ele>628</ele>
        <time>2021-11-20T07:48:19Z</time>
      </trkpt>
      <trkpt lat="43.41713" lon="2.75467">
        <ele>631</ele>
        <time>2021-11-20T07:48:19Z</time>
      </trkpt>
      <trkpt lat="43.41711" lon="2.75611">
        <ele>633</ele>
        <time>2021-11-20T07:48:19Z</time>
      </trkpt>
      <trkpt lat="43.41709" lon="2.75672">
        <ele>636</ele>
        <time>2021-11-20T07:48:19Z</time>
      </trkpt>
      <trkpt lat="43.41716" lon="2.75761">
        <ele>641</ele>
        <time>2021-11-20T07:48:19Z</time>
      </trkpt>
      <trkpt lat="43.41724" lon="2.75794">
        <ele>641</ele>
        <time>2021-11-20T07:48:19Z</time>
      </trkpt>
      <trkpt lat="43.41728" lon="2.75803">
        <ele>641</ele>
        <time>2021-11-20T07:48:19Z</time>
      </trkpt>
      <trkpt lat="43.41733" lon="2.75826">
        <ele>641</ele>
        <time>2021-11-20T07:48:19Z</time>
      </trkpt>
      <trkpt lat="43.41774" lon="2.75919">
        <ele>640</ele>
        <time>2021-11-20T07:48:19Z</time>
      </trkpt>
      <trkpt lat="43.41797" lon="2.76021">
        <ele>638</ele>
        <time>2021-11-20T07:48:19Z</time>
      </trkpt>
      <trkpt lat="43.41797" lon="2.76032">
        <ele>637</ele>
        <time>2021-11-20T07:48:19Z</time>
      </trkpt>
      <trkpt lat="43.41805" lon="2.76061">
        <ele>636</ele>
        <time>2021-11-20T07:48:19Z</time>
      </trkpt>
      <trkpt lat="43.41819" lon="2.76088">
        <ele>637</ele>
        <time>2021-11-20T07:48:19Z</time>
      </trkpt>
      <trkpt lat="43.41831" lon="2.761">
        <ele>638</ele>
        <time>2021-11-20T07:48:19Z</time>
      </trkpt>
      <trkpt lat="43.41851" lon="2.76137">
        <ele>638</ele>
        <time>2021-11-20T07:48:19Z</time>
      </trkpt>
      <trkpt lat="43.41883" lon="2.76205">
        <ele>642</ele>
        <time>2021-11-20T07:48:19Z</time>
      </trkpt>
      <trkpt lat="43.41906" lon="2.76238">
        <ele>646</ele>
        <time>2021-11-20T07:48:19Z</time>
      </trkpt>
      <trkpt lat="43.4192" lon="2.76248">
        <ele>647</ele>
        <time>2021-11-20T07:48:19Z</time>
      </trkpt>
      <trkpt lat="43.41933" lon="2.76267">
        <ele>650</ele>
        <time>2021-11-20T07:48:19Z</time>
      </trkpt>
      <trkpt lat="43.41949" lon="2.76315">
        <ele>656</ele>
        <time>2021-11-20T07:48:19Z</time>
      </trkpt>
      <trkpt lat="43.41951" lon="2.76332">
        <ele>658</ele>
        <time>2021-11-20T07:48:19Z</time>
      </trkpt>
      <trkpt lat="43.4195" lon="2.76355">
        <ele>660</ele>
        <time>2021-11-20T07:48:19Z</time>
      </trkpt>
      <trkpt lat="43.41951" lon="2.76394">
        <ele>661</ele>
        <time>2021-11-20T07:48:19Z</time>
      </trkpt>
      <trkpt lat="43.41945" lon="2.76467">
        <ele>655</ele>
        <time>2021-11-20T07:48:19Z</time>
      </trkpt>
      <trkpt lat="43.41941" lon="2.76486">
        <ele>651</ele>
        <time>2021-11-20T07:48:19Z</time>
      </trkpt>
      <trkpt lat="43.41941" lon="2.76516">
        <ele>646</ele>
        <time>2021-11-20T07:48:19Z</time>
      </trkpt>
      <trkpt lat="43.41951" lon="2.76561">
        <ele>642</ele>
        <time>2021-11-20T07:48:19Z</time>
      </trkpt>
      <trkpt lat="43.41958" lon="2.76575">
        <ele>643</ele>
        <time>2021-11-20T07:48:19Z</time>
      </trkpt>
      <trkpt lat="43.41973" lon="2.76598">
        <ele>645</ele>
        <time>2021-11-20T07:48:19Z</time>
      </trkpt>
      <trkpt lat="43.4198" lon="2.76622">
        <ele>642</ele>
        <time>2021-11-20T07:48:19Z</time>
      </trkpt>
      <trkpt lat="43.41981" lon="2.76666">
        <ele>634</ele>
        <time>2021-11-20T07:48:19Z</time>
      </trkpt>
      <trkpt lat="43.41987" lon="2.76694">
        <ele>631</ele>
        <time>2021-11-20T07:48:19Z</time>
      </trkpt>
      <trkpt lat="43.42006" lon="2.76767">
        <ele>626</ele>
        <time>2021-11-20T07:48:19Z</time>
      </trkpt>
      <trkpt lat="43.42044" lon="2.7686">
        <ele>629</ele>
        <time>2021-11-20T07:48:19Z</time>
      </trkpt>
      <trkpt lat="43.42031" lon="2.76888">
        <ele>626</ele>
        <time>2021-11-20T07:48:19Z</time>
      </trkpt>
      <trkpt lat="43.42029" lon="2.76928">
        <ele>629</ele>
        <time>2021-11-20T07:48:19Z</time>
      </trkpt>
      <trkpt lat="43.42051" lon="2.76944">
        <ele>630</ele>
        <time>2021-11-20T07:48:19Z</time>
      </trkpt>
      <trkpt lat="43.42078" lon="2.76986">
        <ele>628</ele>
        <time>2021-11-20T07:48:19Z</time>
      </trkpt>
      <trkpt lat="43.42121" lon="2.7702">
        <ele>622</ele>
        <time>2021-11-20T07:48:19Z</time>
      </trkpt>
      <trkpt lat="43.42138" lon="2.77039">
        <ele>619</ele>
        <time>2021-11-20T07:48:19Z</time>
      </trkpt>
      <trkpt lat="43.42183" lon="2.77116">
        <ele>612</ele>
        <time>2021-11-20T07:48:19Z</time>
      </trkpt>
      <trkpt lat="43.42219" lon="2.77199">
        <ele>605</ele>
        <time>2021-11-20T07:48:19Z</time>
      </trkpt>
      <trkpt lat="43.42234" lon="2.7725">
        <ele>602</ele>
        <time>2021-11-20T07:48:19Z</time>
      </trkpt>
      <trkpt lat="43.42249" lon="2.77284">
        <ele>599</ele>
        <time>2021-11-20T07:48:19Z</time>
      </trkpt>
      <trkpt lat="43.42263" lon="2.77302">
        <ele>597</ele>
        <time>2021-11-20T07:48:19Z</time>
      </trkpt>
      <trkpt lat="43.42273" lon="2.7732">
        <ele>595</ele>
        <time>2021-11-20T07:48:19Z</time>
      </trkpt>
      <trkpt lat="43.42282" lon="2.77369">
        <ele>591</ele>
        <time>2021-11-20T07:48:19Z</time>
      </trkpt>
      <trkpt lat="43.42291" lon="2.77401">
        <ele>587</ele>
        <time>2021-11-20T07:48:19Z</time>
      </trkpt>
      <trkpt lat="43.42312" lon="2.77459">
        <ele>581</ele>
        <time>2021-11-20T07:48:19Z</time>
      </trkpt>
      <trkpt lat="43.42318" lon="2.7747">
        <ele>580</ele>
        <time>2021-11-20T07:48:19Z</time>
      </trkpt>
      <trkpt lat="43.42331" lon="2.77497">
        <ele>578</ele>
        <time>2021-11-20T07:48:19Z</time>
      </trkpt>
      <trkpt lat="43.42366" lon="2.77519">
        <ele>579</ele>
        <time>2021-11-20T07:48:19Z</time>
      </trkpt>
      <trkpt lat="43.42394" lon="2.77527">
        <ele>582</ele>
        <time>2021-11-20T07:48:19Z</time>
      </trkpt>
      <trkpt lat="43.42407" lon="2.77527">
        <ele>583</ele>
        <time>2021-11-20T07:48:19Z</time>
      </trkpt>
      <trkpt lat="43.42423" lon="2.77557">
        <ele>581</ele>
        <time>2021-11-20T07:48:19Z</time>
      </trkpt>
      <trkpt lat="43.42465" lon="2.7759">
        <ele>585</ele>
        <time>2021-11-20T07:48:19Z</time>
      </trkpt>
      <trkpt lat="43.42515" lon="2.77638">
        <ele>589</ele>
        <time>2021-11-20T07:48:19Z</time>
      </trkpt>
      <trkpt lat="43.42522" lon="2.77641">
        <ele>590</ele>
        <time>2021-11-20T07:48:19Z</time>
      </trkpt>
      <trkpt lat="43.42536" lon="2.77641">
        <ele>592</ele>
        <time>2021-11-20T07:48:19Z</time>
      </trkpt>
      <trkpt lat="43.4255" lon="2.77639">
        <ele>595</ele>
        <time>2021-11-20T07:48:19Z</time>
      </trkpt>
      <trkpt lat="43.42568" lon="2.77656">
        <ele>595</ele>
        <time>2021-11-20T07:48:19Z</time>
      </trkpt>
      <trkpt lat="43.42577" lon="2.77658">
        <ele>596</ele>
        <time>2021-11-20T07:48:19Z</time>
      </trkpt>
      <trkpt lat="43.42623" lon="2.77666">
        <ele>601</ele>
        <time>2021-11-20T07:48:19Z</time>
      </trkpt>
      <trkpt lat="43.42632" lon="2.7767">
        <ele>602</ele>
        <time>2021-11-20T07:48:19Z</time>
      </trkpt>
      <trkpt lat="43.42658" lon="2.77673">
        <ele>605</ele>
        <time>2021-11-20T07:48:19Z</time>
      </trkpt>
      <trkpt lat="43.42674" lon="2.77669">
        <ele>608</ele>
        <time>2021-11-20T07:48:19Z</time>
      </trkpt>
      <trkpt lat="43.42702" lon="2.777">
        <ele>604</ele>
        <time>2021-11-20T07:48:19Z</time>
      </trkpt>
      <trkpt lat="43.42725" lon="2.77714">
        <ele>604</ele>
        <time>2021-11-20T07:48:19Z</time>
      </trkpt>
      <trkpt lat="43.42755" lon="2.7772">
        <ele>606</ele>
        <time>2021-11-20T07:48:19Z</time>
      </trkpt>
      <trkpt lat="43.4278" lon="2.7772">
        <ele>609</ele>
        <time>2021-11-20T07:48:19Z</time>
      </trkpt>
      <trkpt lat="43.42845" lon="2.77714">
        <ele>615</ele>
        <time>2021-11-20T07:48:19Z</time>
      </trkpt>
      <trkpt lat="43.42879" lon="2.77704">
        <ele>619</ele>
        <time>2021-11-20T07:48:19Z</time>
      </trkpt>
      <trkpt lat="43.4291" lon="2.77696">
        <ele>623</ele>
        <time>2021-11-20T07:48:19Z</time>
      </trkpt>
      <trkpt lat="43.42953" lon="2.77698">
        <ele>626</ele>
        <time>2021-11-20T07:48:19Z</time>
      </trkpt>
      <trkpt lat="43.4296" lon="2.77703">
        <ele>626</ele>
        <time>2021-11-20T07:48:19Z</time>
      </trkpt>
      <trkpt lat="43.42962" lon="2.77714">
        <ele>625</ele>
        <time>2021-11-20T07:48:19Z</time>
      </trkpt>
      <trkpt lat="43.42951" lon="2.77735">
        <ele>621</ele>
        <time>2021-11-20T07:48:19Z</time>
      </trkpt>
      <trkpt lat="43.42922" lon="2.77852">
        <ele>622</ele>
        <time>2021-11-20T07:48:19Z</time>
      </trkpt>
      <trkpt lat="43.42921" lon="2.77863">
        <ele>623</ele>
        <time>2021-11-20T07:48:19Z</time>
      </trkpt>
      <trkpt lat="43.42925" lon="2.77877">
        <ele>624</ele>
        <time>2021-11-20T07:48:19Z</time>
      </trkpt>
      <trkpt lat="43.42945" lon="2.77939">
        <ele>627</ele>
        <time>2021-11-20T07:48:19Z</time>
      </trkpt>
      <trkpt lat="43.4298" lon="2.77941">
        <ele>632</ele>
        <time>2021-11-20T07:48:19Z</time>
      </trkpt>
      <trkpt lat="43.43011" lon="2.77953">
        <ele>636</ele>
        <time>2021-11-20T07:48:19Z</time>
      </trkpt>
      <trkpt lat="43.43055" lon="2.77971">
        <ele>641</ele>
        <time>2021-11-20T07:48:19Z</time>
      </trkpt>
      <trkpt lat="43.43065" lon="2.77972">
        <ele>643</ele>
        <time>2021-11-20T07:48:19Z</time>
      </trkpt>
      <trkpt lat="43.43072" lon="2.77967">
        <ele>645</ele>
        <time>2021-11-20T07:48:19Z</time>
      </trkpt>
      <trkpt lat="43.43078" lon="2.77945">
        <ele>649</ele>
        <time>2021-11-20T07:48:19Z</time>
      </trkpt>
      <trkpt lat="43.43083" lon="2.77934">
        <ele>651</ele>
        <time>2021-11-20T07:48:19Z</time>
      </trkpt>
      <trkpt lat="43.43124" lon="2.77825">
        <ele>667</ele>
        <time>2021-11-20T07:48:19Z</time>
      </trkpt>
      <trkpt lat="43.43156" lon="2.77737">
        <ele>676</ele>
        <time>2021-11-20T07:48:19Z</time>
      </trkpt>
      <trkpt lat="43.43178" lon="2.77687">
        <ele>685</ele>
        <time>2021-11-20T07:48:19Z</time>
      </trkpt>
      <trkpt lat="43.43199" lon="2.77631">
        <ele>698</ele>
        <time>2021-11-20T07:48:19Z</time>
      </trkpt>
      <trkpt lat="43.43209" lon="2.77606">
        <ele>705</ele>
        <time>2021-11-20T07:48:19Z</time>
      </trkpt>
      <trkpt lat="43.43218" lon="2.77577">
        <ele>712</ele>
        <time>2021-11-20T07:48:19Z</time>
      </trkpt>
      <trkpt lat="43.43239" lon="2.77522">
        <ele>725</ele>
        <time>2021-11-20T07:48:19Z</time>
      </trkpt>
      <trkpt lat="43.4325" lon="2.7749">
        <ele>732</ele>
        <time>2021-11-20T07:48:19Z</time>
      </trkpt>
      <trkpt lat="43.43259" lon="2.7747">
        <ele>735</ele>
        <time>2021-11-20T07:48:19Z</time>
      </trkpt>
      <trkpt lat="43.43267" lon="2.77454">
        <ele>738</ele>
        <time>2021-11-20T07:48:19Z</time>
      </trkpt>
      <trkpt lat="43.43296" lon="2.77456">
        <ele>737</ele>
        <time>2021-11-20T07:48:19Z</time>
      </trkpt>
      <trkpt lat="43.4336" lon="2.77458">
        <ele>729</ele>
        <time>2021-11-20T07:48:19Z</time>
      </trkpt>
      <trkpt lat="43.43391" lon="2.77461">
        <ele>724</ele>
        <time>2021-11-20T07:48:19Z</time>
      </trkpt>
      <trkpt lat="43.43495" lon="2.7745">
        <ele>724</ele>
        <time>2021-11-20T07:48:19Z</time>
      </trkpt>
      <trkpt lat="43.4351" lon="2.77447">
        <ele>726</ele>
        <time>2021-11-20T07:48:19Z</time>
      </trkpt>
      <trkpt lat="43.43624" lon="2.77422">
        <ele>753</ele>
        <time>2021-11-20T07:48:19Z</time>
      </trkpt>
      <trkpt lat="43.43704" lon="2.77403">
        <ele>768</ele>
        <time>2021-11-20T07:48:19Z</time>
      </trkpt>
      <trkpt lat="43.43754" lon="2.77387">
        <ele>772</ele>
        <time>2021-11-20T07:48:19Z</time>
      </trkpt>
      <trkpt lat="43.43766" lon="2.77397">
        <ele>773</ele>
        <time>2021-11-20T07:48:19Z</time>
      </trkpt>
      <trkpt lat="43.43823" lon="2.77495">
        <ele>766</ele>
        <time>2021-11-20T07:48:19Z</time>
      </trkpt>
      <trkpt lat="43.43837" lon="2.77529">
        <ele>763</ele>
        <time>2021-11-20T07:48:19Z</time>
      </trkpt>
      <trkpt lat="43.43857" lon="2.77557">
        <ele>763</ele>
        <time>2021-11-20T07:48:19Z</time>
      </trkpt>
      <trkpt lat="43.43883" lon="2.77665">
        <ele>760</ele>
        <time>2021-11-20T07:48:19Z</time>
      </trkpt>
      <trkpt lat="43.4388" lon="2.77721">
        <ele>760</ele>
        <time>2021-11-20T07:48:19Z</time>
      </trkpt>
      <trkpt lat="43.4388" lon="2.77783">
        <ele>766</ele>
        <time>2021-11-20T07:48:19Z</time>
      </trkpt>
      <trkpt lat="43.43878" lon="2.77802">
        <ele>768</ele>
        <time>2021-11-20T07:48:19Z</time>
      </trkpt>
      <trkpt lat="43.4387" lon="2.77818">
        <ele>769</ele>
        <time>2021-11-20T07:48:19Z</time>
      </trkpt>
      <trkpt lat="43.43868" lon="2.77829">
        <ele>771</ele>
        <time>2021-11-20T07:48:19Z</time>
      </trkpt>
      <trkpt lat="43.43867" lon="2.77842">
        <ele>773</ele>
        <time>2021-11-20T07:48:19Z</time>
      </trkpt>
      <trkpt lat="43.43872" lon="2.77866">
        <ele>777</ele>
        <time>2021-11-20T07:48:19Z</time>
      </trkpt>
      <trkpt lat="43.43876" lon="2.77875">
        <ele>778</ele>
        <time>2021-11-20T07:48:19Z</time>
      </trkpt>
      <trkpt lat="43.43883" lon="2.7788">
        <ele>780</ele>
        <time>2021-11-20T07:48:19Z</time>
      </trkpt>
      <trkpt lat="43.4389" lon="2.77881">
        <ele>781</ele>
        <time>2021-11-20T07:48:19Z</time>
      </trkpt>
      <trkpt lat="43.439" lon="2.77879">
        <ele>782</ele>
        <time>2021-11-20T07:48:19Z</time>
      </trkpt>
      <trkpt lat="43.43907" lon="2.77882">
        <ele>783</ele>
        <time>2021-11-20T07:48:19Z</time>
      </trkpt>
      <trkpt lat="43.43949" lon="2.77954">
        <ele>781</ele>
        <time>2021-11-20T07:48:19Z</time>
      </trkpt>
      <trkpt lat="43.43972" lon="2.77995">
        <ele>777</ele>
        <time>2021-11-20T07:48:19Z</time>
      </trkpt>
      <trkpt lat="43.43973" lon="2.77968">
        <ele>778</ele>
        <time>2021-11-20T07:48:19Z</time>
      </trkpt>
      <trkpt lat="43.43964" lon="2.77934">
        <ele>779</ele>
        <time>2021-11-20T07:48:19Z</time>
      </trkpt>
      <trkpt lat="43.43962" lon="2.77911">
        <ele>778</ele>
        <time>2021-11-20T07:48:19Z</time>
      </trkpt>
      <trkpt lat="43.43942" lon="2.77843">
        <ele>773</ele>
        <time>2021-11-20T07:48:19Z</time>
      </trkpt>
      <trkpt lat="43.43931" lon="2.77799">
        <ele>767</ele>
        <time>2021-11-20T07:48:19Z</time>
      </trkpt>
      <trkpt lat="43.43908" lon="2.77745">
        <ele>764</ele>
        <time>2021-11-20T07:48:19Z</time>
      </trkpt>
      <trkpt lat="43.43854" lon="2.77546">
        <ele>763</ele>
        <time>2021-11-20T07:48:19Z</time>
      </trkpt>
      <trkpt lat="43.43851" lon="2.77508">
        <ele>763</ele>
        <time>2021-11-20T07:48:19Z</time>
      </trkpt>
      <trkpt lat="43.43883" lon="2.77562">
        <ele>760</ele>
        <time>2021-11-20T07:48:19Z</time>
      </trkpt>
      <trkpt lat="43.43927" lon="2.77634">
        <ele>757</ele>
        <time>2021-11-20T07:48:19Z</time>
      </trkpt>
      <trkpt lat="43.43934" lon="2.77666">
        <ele>756</ele>
        <time>2021-11-20T07:48:19Z</time>
      </trkpt>
      <trkpt lat="43.43936" lon="2.77687">
        <ele>757</ele>
        <time>2021-11-20T07:48:19Z</time>
      </trkpt>
      <trkpt lat="43.43945" lon="2.7771">
        <ele>756</ele>
        <time>2021-11-20T07:48:19Z</time>
      </trkpt>
      <trkpt lat="43.43947" lon="2.77722">
        <ele>756</ele>
        <time>2021-11-20T07:48:19Z</time>
      </trkpt>
      <trkpt lat="43.43969" lon="2.77745">
        <ele>751</ele>
        <time>2021-11-20T07:48:19Z</time>
      </trkpt>
      <trkpt lat="43.43976" lon="2.77749">
        <ele>749</ele>
        <time>2021-11-20T07:48:19Z</time>
      </trkpt>
      <trkpt lat="43.43999" lon="2.77768">
        <ele>742</ele>
        <time>2021-11-20T07:48:19Z</time>
      </trkpt>
      <trkpt lat="43.44013" lon="2.77783">
        <ele>738</ele>
        <time>2021-11-20T07:48:19Z</time>
      </trkpt>
      <trkpt lat="43.44032" lon="2.77803">
        <ele>734</ele>
        <time>2021-11-20T07:48:19Z</time>
      </trkpt>
      <trkpt lat="43.44041" lon="2.7782">
        <ele>734</ele>
        <time>2021-11-20T07:48:19Z</time>
      </trkpt>
      <trkpt lat="43.44048" lon="2.77825">
        <ele>733</ele>
        <time>2021-11-20T07:48:19Z</time>
      </trkpt>
      <trkpt lat="43.44059" lon="2.77827">
        <ele>729</ele>
        <time>2021-11-20T07:48:19Z</time>
      </trkpt>
      <trkpt lat="43.4407" lon="2.77825">
        <ele>724</ele>
        <time>2021-11-20T07:48:19Z</time>
      </trkpt>
      <trkpt lat="43.44089" lon="2.77818">
        <ele>718</ele>
        <time>2021-11-20T07:48:19Z</time>
      </trkpt>
      <trkpt lat="43.44097" lon="2.77815">
        <ele>715</ele>
        <time>2021-11-20T07:48:19Z</time>
      </trkpt>
      <trkpt lat="43.4411" lon="2.77815">
        <ele>713</ele>
        <time>2021-11-20T07:48:19Z</time>
      </trkpt>
      <trkpt lat="43.44121" lon="2.77829">
        <ele>716</ele>
        <time>2021-11-20T07:48:19Z</time>
      </trkpt>
      <trkpt lat="43.44155" lon="2.77878">
        <ele>722</ele>
        <time>2021-11-20T07:48:19Z</time>
      </trkpt>
      <trkpt lat="43.44159" lon="2.77891">
        <ele>724</ele>
        <time>2021-11-20T07:48:19Z</time>
      </trkpt>
      <trkpt lat="43.44163" lon="2.77913">
        <ele>728</ele>
        <time>2021-11-20T07:48:19Z</time>
      </trkpt>
      <trkpt lat="43.44178" lon="2.77955">
        <ele>730</ele>
        <time>2021-11-20T07:48:19Z</time>
      </trkpt>
      <trkpt lat="43.44181" lon="2.77978">
        <ele>733</ele>
        <time>2021-11-20T07:48:19Z</time>
      </trkpt>
      <trkpt lat="43.44203" lon="2.78023">
        <ele>734</ele>
        <time>2021-11-20T07:48:19Z</time>
      </trkpt>
      <trkpt lat="43.44218" lon="2.78018">
        <ele>727</ele>
        <time>2021-11-20T07:48:19Z</time>
      </trkpt>
      <trkpt lat="43.44229" lon="2.78019">
        <ele>725</ele>
        <time>2021-11-20T07:48:19Z</time>
      </trkpt>
      <trkpt lat="43.44316" lon="2.78042">
        <ele>724</ele>
        <time>2021-11-20T07:48:19Z</time>
      </trkpt>
      <trkpt lat="43.4432" lon="2.78051">
        <ele>726</ele>
        <time>2021-11-20T07:48:19Z</time>
      </trkpt>
      <trkpt lat="43.44329" lon="2.78038">
        <ele>723</ele>
        <time>2021-11-20T07:48:19Z</time>
      </trkpt>
      <trkpt lat="43.44333" lon="2.78022">
        <ele>720</ele>
        <time>2021-11-20T07:48:19Z</time>
      </trkpt>
      <trkpt lat="43.44345" lon="2.77972">
        <ele>711</ele>
        <time>2021-11-20T07:48:19Z</time>
      </trkpt>
      <trkpt lat="43.44353" lon="2.7794">
        <ele>704</ele>
        <time>2021-11-20T07:48:19Z</time>
      </trkpt>
      <trkpt lat="43.44364" lon="2.77909">
        <ele>700</ele>
        <time>2021-11-20T07:48:19Z</time>
      </trkpt>
      <trkpt lat="43.44402" lon="2.77856">
        <ele>697</ele>
        <time>2021-11-20T07:48:19Z</time>
      </trkpt>
      <trkpt lat="43.4444" lon="2.77847">
        <ele>696</ele>
        <time>2021-11-20T07:48:19Z</time>
      </trkpt>
      <trkpt lat="43.44417" lon="2.77819">
        <ele>692</ele>
        <time>2021-11-20T07:48:19Z</time>
      </trkpt>
      <trkpt lat="43.44406" lon="2.77798">
        <ele>689</ele>
        <time>2021-11-20T07:48:19Z</time>
      </trkpt>
      <trkpt lat="43.44393" lon="2.7778">
        <ele>684</ele>
        <time>2021-11-20T07:48:19Z</time>
      </trkpt>
      <trkpt lat="43.44386" lon="2.77765">
        <ele>681</ele>
        <time>2021-11-20T07:48:19Z</time>
      </trkpt>
      <trkpt lat="43.44382" lon="2.77746">
        <ele>677</ele>
        <time>2021-11-20T07:48:19Z</time>
      </trkpt>
      <trkpt lat="43.4438" lon="2.77731">
        <ele>674</ele>
        <time>2021-11-20T07:48:19Z</time>
      </trkpt>
      <trkpt lat="43.44385" lon="2.77719">
        <ele>673</ele>
        <time>2021-11-20T07:48:19Z</time>
      </trkpt>
      <trkpt lat="43.444" lon="2.77705">
        <ele>675</ele>
        <time>2021-11-20T07:48:19Z</time>
      </trkpt>
      <trkpt lat="43.44409" lon="2.77701">
        <ele>676</ele>
        <time>2021-11-20T07:48:19Z</time>
      </trkpt>
      <trkpt lat="43.44438" lon="2.77673">
        <ele>673</ele>
        <time>2021-11-20T07:48:19Z</time>
      </trkpt>
      <trkpt lat="43.44447" lon="2.77651">
        <ele>670</ele>
        <time>2021-11-20T07:48:19Z</time>
      </trkpt>
      <trkpt lat="43.44472" lon="2.77626">
        <ele>668</ele>
        <time>2021-11-20T07:48:19Z</time>
      </trkpt>
      <trkpt lat="43.44496" lon="2.77621">
        <ele>670</ele>
        <time>2021-11-20T07:48:19Z</time>
      </trkpt>
      <trkpt lat="43.4459" lon="2.77641">
        <ele>679</ele>
        <time>2021-11-20T07:48:19Z</time>
      </trkpt>
      <trkpt lat="43.44681" lon="2.77671">
        <ele>670</ele>
        <time>2021-11-20T07:48:19Z</time>
      </trkpt>
      <trkpt lat="43.44703" lon="2.77667">
        <ele>668</ele>
        <time>2021-11-20T07:48:19Z</time>
      </trkpt>
      <trkpt lat="43.44729" lon="2.7764">
        <ele>667</ele>
        <time>2021-11-20T07:48:19Z</time>
      </trkpt>
      <trkpt lat="43.44745" lon="2.77615">
        <ele>664</ele>
        <time>2021-11-20T07:48:19Z</time>
      </trkpt>
      <trkpt lat="43.44758" lon="2.7757">
        <ele>662</ele>
        <time>2021-11-20T07:48:19Z</time>
      </trkpt>
      <trkpt lat="43.44763" lon="2.7756">
        <ele>661</ele>
        <time>2021-11-20T07:48:19Z</time>
      </trkpt>
      <trkpt lat="43.44781" lon="2.77529">
        <ele>655</ele>
        <time>2021-11-20T07:48:19Z</time>
      </trkpt>
      <trkpt lat="43.44793" lon="2.77508">
        <ele>652</ele>
        <time>2021-11-20T07:48:19Z</time>
      </trkpt>
      <trkpt lat="43.44804" lon="2.77466">
        <ele>647</ele>
        <time>2021-11-20T07:48:19Z</time>
      </trkpt>
      <trkpt lat="43.44808" lon="2.77452">
        <ele>645</ele>
        <time>2021-11-20T07:48:19Z</time>
      </trkpt>
      <trkpt lat="43.44814" lon="2.77421">
        <ele>639</ele>
        <time>2021-11-20T07:48:19Z</time>
      </trkpt>
      <trkpt lat="43.44818" lon="2.7741">
        <ele>637</ele>
        <time>2021-11-20T07:48:19Z</time>
      </trkpt>
      <trkpt lat="43.44825" lon="2.77398">
        <ele>634</ele>
        <time>2021-11-20T07:48:19Z</time>
      </trkpt>
      <trkpt lat="43.4484" lon="2.77394">
        <ele>633</ele>
        <time>2021-11-20T07:48:19Z</time>
      </trkpt>
      <trkpt lat="43.44852" lon="2.774">
        <ele>633</ele>
        <time>2021-11-20T07:48:19Z</time>
      </trkpt>
      <trkpt lat="43.44858" lon="2.77409">
        <ele>633</ele>
        <time>2021-11-20T07:48:19Z</time>
      </trkpt>
      <trkpt lat="43.44895" lon="2.77548">
        <ele>630</ele>
        <time>2021-11-20T07:48:19Z</time>
      </trkpt>
      <trkpt lat="43.44902" lon="2.77553">
        <ele>629</ele>
        <time>2021-11-20T07:48:19Z</time>
      </trkpt>
      <trkpt lat="43.44913" lon="2.77553">
        <ele>627</ele>
        <time>2021-11-20T07:48:19Z</time>
      </trkpt>
      <trkpt lat="43.44925" lon="2.77511">
        <ele>625</ele>
        <time>2021-11-20T07:48:19Z</time>
      </trkpt>
      <trkpt lat="43.44927" lon="2.77496">
        <ele>624</ele>
        <time>2021-11-20T07:48:19Z</time>
      </trkpt>
      <trkpt lat="43.44937" lon="2.77464">
        <ele>620</ele>
        <time>2021-11-20T07:48:19Z</time>
      </trkpt>
      <trkpt lat="43.44936" lon="2.77415">
        <ele>616</ele>
        <time>2021-11-20T07:48:19Z</time>
      </trkpt>
      <trkpt lat="43.4493" lon="2.7739">
        <ele>614</ele>
        <time>2021-11-20T07:48:19Z</time>
      </trkpt>
      <trkpt lat="43.44926" lon="2.77347">
        <ele>607</ele>
        <time>2021-11-20T07:48:19Z</time>
      </trkpt>
      <trkpt lat="43.44909" lon="2.773">
        <ele>602</ele>
        <time>2021-11-20T07:48:19Z</time>
      </trkpt>
      <trkpt lat="43.44846" lon="2.77193">
        <ele>589</ele>
        <time>2021-11-20T07:48:19Z</time>
      </trkpt>
      <trkpt lat="43.44822" lon="2.77171">
        <ele>585</ele>
        <time>2021-11-20T07:48:19Z</time>
      </trkpt>
      <trkpt lat="43.44807" lon="2.77164">
        <ele>584</ele>
        <time>2021-11-20T07:48:19Z</time>
      </trkpt>
      <trkpt lat="43.44786" lon="2.77145">
        <ele>579</ele>
        <time>2021-11-20T07:48:19Z</time>
      </trkpt>
      <trkpt lat="43.44767" lon="2.77134">
        <ele>577</ele>
        <time>2021-11-20T07:48:19Z</time>
      </trkpt>
      <trkpt lat="43.44756" lon="2.77123">
        <ele>572</ele>
        <time>2021-11-20T07:48:19Z</time>
      </trkpt>
      <trkpt lat="43.44747" lon="2.77119">
        <ele>570</ele>
        <time>2021-11-20T07:48:19Z</time>
      </trkpt>
      <trkpt lat="43.44734" lon="2.77122">
        <ele>567</ele>
        <time>2021-11-20T07:48:19Z</time>
      </trkpt>
      <trkpt lat="43.44723" lon="2.77133">
        <ele>566</ele>
        <time>2021-11-20T07:48:19Z</time>
      </trkpt>
      <trkpt lat="43.44717" lon="2.77147">
        <ele>567</ele>
        <time>2021-11-20T07:48:19Z</time>
      </trkpt>
      <trkpt lat="43.44701" lon="2.77159">
        <ele>565</ele>
        <time>2021-11-20T07:48:19Z</time>
      </trkpt>
      <trkpt lat="43.44687" lon="2.7718">
        <ele>566</ele>
        <time>2021-11-20T07:48:19Z</time>
      </trkpt>
      <trkpt lat="43.44664" lon="2.77192">
        <ele>565</ele>
        <time>2021-11-20T07:48:19Z</time>
      </trkpt>
      <trkpt lat="43.44655" lon="2.77192">
        <ele>564</ele>
        <time>2021-11-20T07:48:19Z</time>
      </trkpt>
      <trkpt lat="43.44641" lon="2.77199">
        <ele>563</ele>
        <time>2021-11-20T07:48:19Z</time>
      </trkpt>
      <trkpt lat="43.4463" lon="2.77209">
        <ele>562</ele>
        <time>2021-11-20T07:48:19Z</time>
      </trkpt>
      <trkpt lat="43.44613" lon="2.77222">
        <ele>566</ele>
        <time>2021-11-20T07:48:19Z</time>
      </trkpt>
      <trkpt lat="43.44606" lon="2.77224">
        <ele>568</ele>
        <time>2021-11-20T07:48:19Z</time>
      </trkpt>
      <trkpt lat="43.44589" lon="2.77239">
        <ele>572</ele>
        <time>2021-11-20T07:48:19Z</time>
      </trkpt>
      <trkpt lat="43.4458" lon="2.77239">
        <ele>573</ele>
        <time>2021-11-20T07:48:20Z</time>
      </trkpt>
      <trkpt lat="43.44578" lon="2.77217">
        <ele>574</ele>
        <time>2021-11-20T07:48:20Z</time>
      </trkpt>
      <trkpt lat="43.44582" lon="2.77204">
        <ele>574</ele>
        <time>2021-11-20T07:48:20Z</time>
      </trkpt>
      <trkpt lat="43.4458" lon="2.77191">
        <ele>575</ele>
        <time>2021-11-20T07:48:20Z</time>
      </trkpt>
      <trkpt lat="43.44575" lon="2.77182">
        <ele>577</ele>
        <time>2021-11-20T07:48:20Z</time>
      </trkpt>
      <trkpt lat="43.44569" lon="2.77175">
        <ele>580</ele>
        <time>2021-11-20T07:48:20Z</time>
      </trkpt>
      <trkpt lat="43.44567" lon="2.77164">
        <ele>581</ele>
        <time>2021-11-20T07:48:20Z</time>
      </trkpt>
      <trkpt lat="43.44565" lon="2.76998">
        <ele>584</ele>
        <time>2021-11-20T07:48:20Z</time>
      </trkpt>
      <trkpt lat="43.44557" lon="2.76976">
        <ele>583</ele>
        <time>2021-11-20T07:48:20Z</time>
      </trkpt>
      <trkpt lat="43.44546" lon="2.76956">
        <ele>581</ele>
        <time>2021-11-20T07:48:20Z</time>
      </trkpt>
      <trkpt lat="43.44493" lon="2.76913">
        <ele>578</ele>
        <time>2021-11-20T07:48:20Z</time>
      </trkpt>
      <trkpt lat="43.44467" lon="2.76911">
        <ele>580</ele>
        <time>2021-11-20T07:48:20Z</time>
      </trkpt>
      <trkpt lat="43.4443" lon="2.76924">
        <ele>588</ele>
        <time>2021-11-20T07:48:20Z</time>
      </trkpt>
      <trkpt lat="43.44415" lon="2.76927">
        <ele>591</ele>
        <time>2021-11-20T07:48:20Z</time>
      </trkpt>
      <trkpt lat="43.44401" lon="2.76919">
        <ele>592</ele>
        <time>2021-11-20T07:48:20Z</time>
      </trkpt>
      <trkpt lat="43.44376" lon="2.76913">
        <ele>596</ele>
        <time>2021-11-20T07:48:20Z</time>
      </trkpt>
      <trkpt lat="43.44341" lon="2.76911">
        <ele>604</ele>
        <time>2021-11-20T07:48:20Z</time>
      </trkpt>
      <trkpt lat="43.44331" lon="2.76909">
        <ele>606</ele>
        <time>2021-11-20T07:48:20Z</time>
      </trkpt>
      <trkpt lat="43.44314" lon="2.76898">
        <ele>612</ele>
        <time>2021-11-20T07:48:20Z</time>
      </trkpt>
      <trkpt lat="43.4431" lon="2.76888">
        <ele>614</ele>
        <time>2021-11-20T07:48:20Z</time>
      </trkpt>
      <trkpt lat="43.44316" lon="2.76883">
        <ele>614</ele>
        <time>2021-11-20T07:48:20Z</time>
      </trkpt>
      <trkpt lat="43.44346" lon="2.76866">
        <ele>611</ele>
        <time>2021-11-20T07:48:20Z</time>
      </trkpt>
      <trkpt lat="43.44358" lon="2.76852">
        <ele>610</ele>
        <time>2021-11-20T07:48:20Z</time>
      </trkpt>
      <trkpt lat="43.44363" lon="2.76843">
        <ele>610</ele>
        <time>2021-11-20T07:48:20Z</time>
      </trkpt>
      <trkpt lat="43.44376" lon="2.768">
        <ele>609</ele>
        <time>2021-11-20T07:48:20Z</time>
      </trkpt>
      <trkpt lat="43.44376" lon="2.76781">
        <ele>612</ele>
        <time>2021-11-20T07:48:20Z</time>
      </trkpt>
      <trkpt lat="43.44371" lon="2.76768">
        <ele>616</ele>
        <time>2021-11-20T07:48:20Z</time>
      </trkpt>
      <trkpt lat="43.44365" lon="2.76757">
        <ele>620</ele>
        <time>2021-11-20T07:48:20Z</time>
      </trkpt>
      <trkpt lat="43.44359" lon="2.76741">
        <ele>624</ele>
        <time>2021-11-20T07:48:20Z</time>
      </trkpt>
      <trkpt lat="43.44368" lon="2.76722">
        <ele>625</ele>
        <time>2021-11-20T07:48:20Z</time>
      </trkpt>
      <trkpt lat="43.4438" lon="2.76718">
        <ele>623</ele>
        <time>2021-11-20T07:48:20Z</time>
      </trkpt>
      <trkpt lat="43.44416" lon="2.76696">
        <ele>621</ele>
        <time>2021-11-20T07:48:20Z</time>
      </trkpt>
      <trkpt lat="43.44428" lon="2.76681">
        <ele>622</ele>
        <time>2021-11-20T07:48:20Z</time>
      </trkpt>
      <trkpt lat="43.44473" lon="2.76589">
        <ele>626</ele>
        <time>2021-11-20T07:48:20Z</time>
      </trkpt>
      <trkpt lat="43.44464" lon="2.7659">
        <ele>629</ele>
        <time>2021-11-20T07:48:20Z</time>
      </trkpt>
      <trkpt lat="43.44454" lon="2.76608">
        <ele>629</ele>
        <time>2021-11-20T07:48:20Z</time>
      </trkpt>
      <trkpt lat="43.44401" lon="2.7668">
        <ele>631</ele>
        <time>2021-11-20T07:48:20Z</time>
      </trkpt>
      <trkpt lat="43.44378" lon="2.76686">
        <ele>637</ele>
        <time>2021-11-20T07:48:20Z</time>
      </trkpt>
      <trkpt lat="43.44356" lon="2.76697">
        <ele>640</ele>
        <time>2021-11-20T07:48:20Z</time>
      </trkpt>
      <trkpt lat="43.44301" lon="2.76714">
        <ele>646</ele>
        <time>2021-11-20T07:48:20Z</time>
      </trkpt>
      <trkpt lat="43.44295" lon="2.7672">
        <ele>646</ele>
        <time>2021-11-20T07:48:20Z</time>
      </trkpt>
      <trkpt lat="43.44303" lon="2.76759">
        <ele>640</ele>
        <time>2021-11-20T07:48:20Z</time>
      </trkpt>
      <trkpt lat="43.44303" lon="2.76772">
        <ele>639</ele>
        <time>2021-11-20T07:48:20Z</time>
      </trkpt>
      <trkpt lat="43.44288" lon="2.76789">
        <ele>642</ele>
        <time>2021-11-20T07:48:20Z</time>
      </trkpt>
      <trkpt lat="43.44279" lon="2.76793">
        <ele>644</ele>
        <time>2021-11-20T07:48:20Z</time>
      </trkpt>
      <trkpt lat="43.44254" lon="2.76819">
        <ele>649</ele>
        <time>2021-11-20T07:48:20Z</time>
      </trkpt>
      <trkpt lat="43.44243" lon="2.76826">
        <ele>653</ele>
        <time>2021-11-20T07:48:20Z</time>
      </trkpt>
      <trkpt lat="43.44204" lon="2.76868">
        <ele>661</ele>
        <time>2021-11-20T07:48:20Z</time>
      </trkpt>
      <trkpt lat="43.442" lon="2.7688">
        <ele>660</ele>
        <time>2021-11-20T07:48:20Z</time>
      </trkpt>
      <trkpt lat="43.44192" lon="2.76885">
        <ele>662</ele>
        <time>2021-11-20T07:48:20Z</time>
      </trkpt>
      <trkpt lat="43.44157" lon="2.76963">
        <ele>664</ele>
        <time>2021-11-20T07:48:20Z</time>
      </trkpt>
      <trkpt lat="43.44146" lon="2.76976">
        <ele>668</ele>
        <time>2021-11-20T07:48:20Z</time>
      </trkpt>
      <trkpt lat="43.44142" lon="2.76984">
        <ele>669</ele>
        <time>2021-11-20T07:48:20Z</time>
      </trkpt>
      <trkpt lat="43.44145" lon="2.76997">
        <ele>667</ele>
        <time>2021-11-20T07:48:20Z</time>
      </trkpt>
      <trkpt lat="43.44155" lon="2.77006">
        <ele>663</ele>
        <time>2021-11-20T07:48:20Z</time>
      </trkpt>
      <trkpt lat="43.44165" lon="2.77016">
        <ele>660</ele>
        <time>2021-11-20T07:48:20Z</time>
      </trkpt>
      <trkpt lat="43.44181" lon="2.77059">
        <ele>660</ele>
        <time>2021-11-20T07:48:20Z</time>
      </trkpt>
      <trkpt lat="43.44194" lon="2.77095">
        <ele>662</ele>
        <time>2021-11-20T07:48:20Z</time>
      </trkpt>
      <trkpt lat="43.442" lon="2.77119">
        <ele>665</ele>
        <time>2021-11-20T07:48:20Z</time>
      </trkpt>
      <trkpt lat="43.44207" lon="2.77128">
        <ele>664</ele>
        <time>2021-11-20T07:48:20Z</time>
      </trkpt>
      <trkpt lat="43.44215" lon="2.77135">
        <ele>663</ele>
        <time>2021-11-20T07:48:20Z</time>
      </trkpt>
      <trkpt lat="43.44235" lon="2.77167">
        <ele>665</ele>
        <time>2021-11-20T07:48:20Z</time>
      </trkpt>
      <trkpt lat="43.44241" lon="2.77173">
        <ele>665</ele>
        <time>2021-11-20T07:48:20Z</time>
      </trkpt>
      <trkpt lat="43.44245" lon="2.77182">
        <ele>666</ele>
        <time>2021-11-20T07:48:20Z</time>
      </trkpt>
      <trkpt lat="43.44247" lon="2.77195">
        <ele>667</ele>
        <time>2021-11-20T07:48:20Z</time>
      </trkpt>
      <trkpt lat="43.44248" lon="2.77213">
        <ele>668</ele>
        <time>2021-11-20T07:48:20Z</time>
      </trkpt>
      <trkpt lat="43.44251" lon="2.7724">
        <ele>671</ele>
        <time>2021-11-20T07:48:20Z</time>
      </trkpt>
      <trkpt lat="43.4428" lon="2.77311">
        <ele>674</ele>
        <time>2021-11-20T07:48:20Z</time>
      </trkpt>
      <trkpt lat="43.44282" lon="2.77332">
        <ele>676</ele>
        <time>2021-11-20T07:48:20Z</time>
      </trkpt>
      <trkpt lat="43.44273" lon="2.77334">
        <ele>678</ele>
        <time>2021-11-20T07:48:20Z</time>
      </trkpt>
      <trkpt lat="43.44256" lon="2.773">
        <ele>676</ele>
        <time>2021-11-20T07:48:20Z</time>
      </trkpt>
      <trkpt lat="43.44206" lon="2.77254">
        <ele>682</ele>
        <time>2021-11-20T07:48:20Z</time>
      </trkpt>
      <trkpt lat="43.44197" lon="2.7725">
        <ele>684</ele>
        <time>2021-11-20T07:48:20Z</time>
      </trkpt>
      <trkpt lat="43.44184" lon="2.77238">
        <ele>685</ele>
        <time>2021-11-20T07:48:20Z</time>
      </trkpt>
      <trkpt lat="43.44161" lon="2.77213">
        <ele>689</ele>
        <time>2021-11-20T07:48:20Z</time>
      </trkpt>
      <trkpt lat="43.44129" lon="2.77131">
        <ele>692</ele>
        <time>2021-11-20T07:48:20Z</time>
      </trkpt>
      <trkpt lat="43.44095" lon="2.77029">
        <ele>690</ele>
        <time>2021-11-20T07:48:20Z</time>
      </trkpt>
      <trkpt lat="43.44076" lon="2.76987">
        <ele>699</ele>
        <time>2021-11-20T07:48:20Z</time>
      </trkpt>
      <trkpt lat="43.44075" lon="2.76967">
        <ele>701</ele>
        <time>2021-11-20T07:48:20Z</time>
      </trkpt>
      <trkpt lat="43.44136" lon="2.76832">
        <ele>696</ele>
        <time>2021-11-20T07:48:20Z</time>
      </trkpt>
      <trkpt lat="43.44151" lon="2.76807">
        <ele>694</ele>
        <time>2021-11-20T07:48:20Z</time>
      </trkpt>
      <trkpt lat="43.4417" lon="2.76762">
        <ele>692</ele>
        <time>2021-11-20T07:48:20Z</time>
      </trkpt>
      <trkpt lat="43.44185" lon="2.76691">
        <ele>688</ele>
        <time>2021-11-20T07:48:20Z</time>
      </trkpt>
      <trkpt lat="43.4419" lon="2.76672">
        <ele>686</ele>
        <time>2021-11-20T07:48:20Z</time>
      </trkpt>
      <trkpt lat="43.44189" lon="2.76649">
        <ele>684</ele>
        <time>2021-11-20T07:48:20Z</time>
      </trkpt>
      <trkpt lat="43.44183" lon="2.76611">
        <ele>680</ele>
        <time>2021-11-20T07:48:20Z</time>
      </trkpt>
      <trkpt lat="43.44174" lon="2.76584">
        <ele>677</ele>
        <time>2021-11-20T07:48:20Z</time>
      </trkpt>
      <trkpt lat="43.44145" lon="2.7654">
        <ele>671</ele>
        <time>2021-11-20T07:48:20Z</time>
      </trkpt>
      <trkpt lat="43.44127" lon="2.76522">
        <ele>669</ele>
        <time>2021-11-20T07:48:20Z</time>
      </trkpt>
      <trkpt lat="43.4411" lon="2.7651">
        <ele>664</ele>
        <time>2021-11-20T07:48:20Z</time>
      </trkpt>
      <trkpt lat="43.44097" lon="2.76505">
        <ele>662</ele>
        <time>2021-11-20T07:48:20Z</time>
      </trkpt>
      <trkpt lat="43.44081" lon="2.76504">
        <ele>663</ele>
        <time>2021-11-20T07:48:20Z</time>
      </trkpt>
      <trkpt lat="43.44065" lon="2.76512">
        <ele>666</ele>
        <time>2021-11-20T07:48:20Z</time>
      </trkpt>
      <trkpt lat="43.44056" lon="2.76514">
        <ele>666</ele>
        <time>2021-11-20T07:48:20Z</time>
      </trkpt>
      <trkpt lat="43.4402" lon="2.76499">
        <ele>667</ele>
        <time>2021-11-20T07:48:20Z</time>
      </trkpt>
      <trkpt lat="43.44013" lon="2.76493">
        <ele>667</ele>
        <time>2021-11-20T07:48:20Z</time>
      </trkpt>
      <trkpt lat="43.43988" lon="2.76475">
        <ele>673</ele>
        <time>2021-11-20T07:48:20Z</time>
      </trkpt>
      <trkpt lat="43.43973" lon="2.76467">
        <ele>679</ele>
        <time>2021-11-20T07:48:20Z</time>
      </trkpt>
      <trkpt lat="43.43966" lon="2.76453">
        <ele>682</ele>
        <time>2021-11-20T07:48:20Z</time>
      </trkpt>
      <trkpt lat="43.43973" lon="2.76414">
        <ele>680</ele>
        <time>2021-11-20T07:48:20Z</time>
      </trkpt>
      <trkpt lat="43.43977" lon="2.7633">
        <ele>682</ele>
        <time>2021-11-20T07:48:20Z</time>
      </trkpt>
      <trkpt lat="43.43979" lon="2.76318">
        <ele>681</ele>
        <time>2021-11-20T07:48:20Z</time>
      </trkpt>
      <trkpt lat="43.43979" lon="2.763">
        <ele>680</ele>
        <time>2021-11-20T07:48:20Z</time>
      </trkpt>
      <trkpt lat="43.43973" lon="2.76262">
        <ele>678</ele>
        <time>2021-11-20T07:48:20Z</time>
      </trkpt>
      <trkpt lat="43.43964" lon="2.76235">
        <ele>678</ele>
        <time>2021-11-20T07:48:20Z</time>
      </trkpt>
      <trkpt lat="43.43937" lon="2.76172">
        <ele>682</ele>
        <time>2021-11-20T07:48:20Z</time>
      </trkpt>
      <trkpt lat="43.43931" lon="2.76154">
        <ele>686</ele>
        <time>2021-11-20T07:48:20Z</time>
      </trkpt>
      <trkpt lat="43.43928" lon="2.76139">
        <ele>688</ele>
        <time>2021-11-20T07:48:20Z</time>
      </trkpt>
      <trkpt lat="43.43928" lon="2.76129">
        <ele>689</ele>
        <time>2021-11-20T07:48:20Z</time>
      </trkpt>
      <trkpt lat="43.43939" lon="2.76093">
        <ele>690</ele>
        <time>2021-11-20T07:48:20Z</time>
      </trkpt>
      <trkpt lat="43.43992" lon="2.75995">
        <ele>690</ele>
        <time>2021-11-20T07:48:20Z</time>
      </trkpt>
      <trkpt lat="43.43992" lon="2.7595">
        <ele>692</ele>
        <time>2021-11-20T07:48:20Z</time>
      </trkpt>
      <trkpt lat="43.43982" lon="2.75868">
        <ele>691</ele>
        <time>2021-11-20T07:48:20Z</time>
      </trkpt>
      <trkpt lat="43.43975" lon="2.75824">
        <ele>686</ele>
        <time>2021-11-20T07:48:20Z</time>
      </trkpt>
      <trkpt lat="43.43968" lon="2.75798">
        <ele>684</ele>
        <time>2021-11-20T07:48:20Z</time>
      </trkpt>
      <trkpt lat="43.43962" lon="2.75789">
        <ele>684</ele>
        <time>2021-11-20T07:48:20Z</time>
      </trkpt>
      <trkpt lat="43.43926" lon="2.75787">
        <ele>693</ele>
        <time>2021-11-20T07:48:20Z</time>
      </trkpt>
      <trkpt lat="43.43915" lon="2.75783">
        <ele>694</ele>
        <time>2021-11-20T07:48:20Z</time>
      </trkpt>
      <trkpt lat="43.43906" lon="2.75774">
        <ele>696</ele>
        <time>2021-11-20T07:48:20Z</time>
      </trkpt>
      <trkpt lat="43.43884" lon="2.75663">
        <ele>693</ele>
        <time>2021-11-20T07:48:20Z</time>
      </trkpt>
      <trkpt lat="43.43884" lon="2.75616">
        <ele>691</ele>
        <time>2021-11-20T07:48:20Z</time>
      </trkpt>
      <trkpt lat="43.43902" lon="2.75579">
        <ele>690</ele>
        <time>2021-11-20T07:48:20Z</time>
      </trkpt>
      <trkpt lat="43.43883" lon="2.75603">
        <ele>690</ele>
        <time>2021-11-20T07:48:20Z</time>
      </trkpt>
      <trkpt lat="43.43852" lon="2.75637">
        <ele>694</ele>
        <time>2021-11-20T07:48:20Z</time>
      </trkpt>
      <trkpt lat="43.43848" lon="2.75647">
        <ele>695</ele>
        <time>2021-11-20T07:48:20Z</time>
      </trkpt>
      <trkpt lat="43.43837" lon="2.7567">
        <ele>698</ele>
        <time>2021-11-20T07:48:20Z</time>
      </trkpt>
      <trkpt lat="43.43816" lon="2.75707">
        <ele>704</ele>
        <time>2021-11-20T07:48:20Z</time>
      </trkpt>
      <trkpt lat="43.43808" lon="2.75719">
        <ele>706</ele>
        <time>2021-11-20T07:48:20Z</time>
      </trkpt>
      <trkpt lat="43.43763" lon="2.75733">
        <ele>711</ele>
        <time>2021-11-20T07:48:20Z</time>
      </trkpt>
      <trkpt lat="43.43743" lon="2.75729">
        <ele>711</ele>
        <time>2021-11-20T07:48:20Z</time>
      </trkpt>
      <trkpt lat="43.43733" lon="2.75733">
        <ele>711</ele>
        <time>2021-11-20T07:48:20Z</time>
      </trkpt>
      <trkpt lat="43.4373" lon="2.75744">
        <ele>713</ele>
        <time>2021-11-20T07:48:20Z</time>
      </trkpt>
      <trkpt lat="43.4373" lon="2.75785">
        <ele>715</ele>
        <time>2021-11-20T07:48:20Z</time>
      </trkpt>
      <trkpt lat="43.43732" lon="2.75853">
        <ele>721</ele>
        <time>2021-11-20T07:48:20Z</time>
      </trkpt>
      <trkpt lat="43.4373" lon="2.7587">
        <ele>722</ele>
        <time>2021-11-20T07:48:20Z</time>
      </trkpt>
      <trkpt lat="43.43681" lon="2.75961">
        <ele>724</ele>
        <time>2021-11-20T07:48:20Z</time>
      </trkpt>
      <trkpt lat="43.4367" lon="2.75965">
        <ele>725</ele>
        <time>2021-11-20T07:48:20Z</time>
      </trkpt>
      <trkpt lat="43.43659" lon="2.75959">
        <ele>725</ele>
        <time>2021-11-20T07:48:20Z</time>
      </trkpt>
      <trkpt lat="43.43636" lon="2.75932">
        <ele>726</ele>
        <time>2021-11-20T07:48:20Z</time>
      </trkpt>
      <trkpt lat="43.43627" lon="2.75913">
        <ele>727</ele>
        <time>2021-11-20T07:48:20Z</time>
      </trkpt>
      <trkpt lat="43.43627" lon="2.75903">
        <ele>727</ele>
        <time>2021-11-20T07:48:20Z</time>
      </trkpt>
      <trkpt lat="43.43634" lon="2.75883">
        <ele>726</ele>
        <time>2021-11-20T07:48:20Z</time>
      </trkpt>
      <trkpt lat="43.43636" lon="2.75867">
        <ele>725</ele>
        <time>2021-11-20T07:48:20Z</time>
      </trkpt>
      <trkpt lat="43.43642" lon="2.75841">
        <ele>723</ele>
        <time>2021-11-20T07:48:20Z</time>
      </trkpt>
      <trkpt lat="43.43647" lon="2.75811">
        <ele>720</ele>
        <time>2021-11-20T07:48:20Z</time>
      </trkpt>
      <trkpt lat="43.43651" lon="2.75774">
        <ele>716</ele>
        <time>2021-11-20T07:48:20Z</time>
      </trkpt>
      <trkpt lat="43.43649" lon="2.75759">
        <ele>716</ele>
        <time>2021-11-20T07:48:20Z</time>
      </trkpt>
      <trkpt lat="43.43634" lon="2.75718">
        <ele>714</ele>
        <time>2021-11-20T07:48:20Z</time>
      </trkpt>
      <trkpt lat="43.43619" lon="2.75647">
        <ele>711</ele>
        <time>2021-11-20T07:48:20Z</time>
      </trkpt>
      <trkpt lat="43.43619" lon="2.75607">
        <ele>708</ele>
        <time>2021-11-20T07:48:20Z</time>
      </trkpt>
      <trkpt lat="43.43617" lon="2.75591">
        <ele>707</ele>
        <time>2021-11-20T07:48:20Z</time>
      </trkpt>
      <trkpt lat="43.43606" lon="2.7548">
        <ele>701</ele>
        <time>2021-11-20T07:48:20Z</time>
      </trkpt>
      <trkpt lat="43.4354" lon="2.75489">
        <ele>702</ele>
        <time>2021-11-20T07:48:20Z</time>
      </trkpt>
      <trkpt lat="43.43494" lon="2.75473">
        <ele>703</ele>
        <time>2021-11-20T07:48:20Z</time>
      </trkpt>
      <trkpt lat="43.43451" lon="2.75446">
        <ele>704</ele>
        <time>2021-11-20T07:48:20Z</time>
      </trkpt>
      <trkpt lat="43.43398" lon="2.75439">
        <ele>705</ele>
        <time>2021-11-20T07:48:20Z</time>
      </trkpt>
      <trkpt lat="43.43382" lon="2.75446">
        <ele>705</ele>
        <time>2021-11-20T07:48:20Z</time>
      </trkpt>
      <trkpt lat="43.43357" lon="2.75463">
        <ele>705</ele>
        <time>2021-11-20T07:48:20Z</time>
      </trkpt>
      <trkpt lat="43.43303" lon="2.75599">
        <ele>709</ele>
        <time>2021-11-20T07:48:20Z</time>
      </trkpt>
      <trkpt lat="43.4329" lon="2.75686">
        <ele>709</ele>
        <time>2021-11-20T07:48:20Z</time>
      </trkpt>
      <trkpt lat="43.43288" lon="2.75716">
        <ele>710</ele>
        <time>2021-11-20T07:48:20Z</time>
      </trkpt>
      <trkpt lat="43.43271" lon="2.75756">
        <ele>710</ele>
        <time>2021-11-20T07:48:20Z</time>
      </trkpt>
      <trkpt lat="43.43262" lon="2.75764">
        <ele>709</ele>
        <time>2021-11-20T07:48:20Z</time>
      </trkpt>
      <trkpt lat="43.43228" lon="2.75811">
        <ele>712</ele>
        <time>2021-11-20T07:48:20Z</time>
      </trkpt>
      <trkpt lat="43.43207" lon="2.75812">
        <ele>712</ele>
        <time>2021-11-20T07:48:20Z</time>
      </trkpt>
      <trkpt lat="43.43196" lon="2.75806">
        <ele>711</ele>
        <time>2021-11-20T07:48:20Z</time>
      </trkpt>
      <trkpt lat="43.43185" lon="2.75784">
        <ele>709</ele>
        <time>2021-11-20T07:48:20Z</time>
      </trkpt>
      <trkpt lat="43.43169" lon="2.75778">
        <ele>708</ele>
        <time>2021-11-20T07:48:20Z</time>
      </trkpt>
      <trkpt lat="43.43157" lon="2.75762">
        <ele>706</ele>
        <time>2021-11-20T07:48:20Z</time>
      </trkpt>
      <trkpt lat="43.43146" lon="2.75739">
        <ele>703</ele>
        <time>2021-11-20T07:48:20Z</time>
      </trkpt>
      <trkpt lat="43.43121" lon="2.75697">
        <ele>697</ele>
        <time>2021-11-20T07:48:20Z</time>
      </trkpt>
      <trkpt lat="43.43093" lon="2.7567">
        <ele>693</ele>
        <time>2021-11-20T07:48:20Z</time>
      </trkpt>
      <trkpt lat="43.43084" lon="2.75667">
        <ele>692</ele>
        <time>2021-11-20T07:48:20Z</time>
      </trkpt>
      <trkpt lat="43.43078" lon="2.75658">
        <ele>691</ele>
        <time>2021-11-20T07:48:20Z</time>
      </trkpt>
      <trkpt lat="43.43072" lon="2.75626">
        <ele>686</ele>
        <time>2021-11-20T07:48:20Z</time>
      </trkpt>
      <trkpt lat="43.43056" lon="2.75615">
        <ele>684</ele>
        <time>2021-11-20T07:48:20Z</time>
      </trkpt>
      <trkpt lat="43.43048" lon="2.75594">
        <ele>681</ele>
        <time>2021-11-20T07:48:20Z</time>
      </trkpt>
      <trkpt lat="43.43037" lon="2.75559">
        <ele>677</ele>
        <time>2021-11-20T07:48:20Z</time>
      </trkpt>
      <trkpt lat="43.43037" lon="2.7554">
        <ele>675</ele>
        <time>2021-11-20T07:48:20Z</time>
      </trkpt>
      <trkpt lat="43.43022" lon="2.75512">
        <ele>672</ele>
        <time>2021-11-20T07:48:20Z</time>
      </trkpt>
      <trkpt lat="43.4302" lon="2.75499">
        <ele>671</ele>
        <time>2021-11-20T07:48:20Z</time>
      </trkpt>
      <trkpt lat="43.43022" lon="2.75487">
        <ele>671</ele>
        <time>2021-11-20T07:48:20Z</time>
      </trkpt>
      <trkpt lat="43.43022" lon="2.75474">
        <ele>670</ele>
        <time>2021-11-20T07:48:20Z</time>
      </trkpt>
      <trkpt lat="43.43016" lon="2.75463">
        <ele>669</ele>
        <time>2021-11-20T07:48:20Z</time>
      </trkpt>
      <trkpt lat="43.43013" lon="2.75446">
        <ele>668</ele>
        <time>2021-11-20T07:48:20Z</time>
      </trkpt>
      <trkpt lat="43.43018" lon="2.75418">
        <ele>670</ele>
        <time>2021-11-20T07:48:20Z</time>
      </trkpt>
      <trkpt lat="43.43018" lon="2.75403">
        <ele>670</ele>
        <time>2021-11-20T07:48:20Z</time>
      </trkpt>
      <trkpt lat="43.42998" lon="2.75304">
        <ele>672</ele>
        <time>2021-11-20T07:48:20Z</time>
      </trkpt>
      <trkpt lat="43.42998" lon="2.75287">
        <ele>673</ele>
        <time>2021-11-20T07:48:20Z</time>
      </trkpt>
      <trkpt lat="43.43003" lon="2.75263">
        <ele>675</ele>
        <time>2021-11-20T07:48:20Z</time>
      </trkpt>
      <trkpt lat="43.43001" lon="2.75169">
        <ele>678</ele>
        <time>2021-11-20T07:48:20Z</time>
      </trkpt>
      <trkpt lat="43.42996" lon="2.7514">
        <ele>678</ele>
        <time>2021-11-20T07:48:20Z</time>
      </trkpt>
      <trkpt lat="43.42996" lon="2.75123">
        <ele>678</ele>
        <time>2021-11-20T07:48:20Z</time>
      </trkpt>
      <trkpt lat="43.43003" lon="2.75096">
        <ele>678</ele>
        <time>2021-11-20T07:48:20Z</time>
      </trkpt>
      <trkpt lat="43.43003" lon="2.75046">
        <ele>678</ele>
        <time>2021-11-20T07:48:20Z</time>
      </trkpt>
      <trkpt lat="43.43005" lon="2.75031">
        <ele>678</ele>
        <time>2021-11-20T07:48:20Z</time>
      </trkpt>
      <trkpt lat="43.43003" lon="2.74967">
        <ele>678</ele>
        <time>2021-11-20T07:48:20Z</time>
      </trkpt>
      <trkpt lat="43.42979" lon="2.74875">
        <ele>676</ele>
        <time>2021-11-20T07:48:20Z</time>
      </trkpt>
      <trkpt lat="43.42964" lon="2.74854">
        <ele>673</ele>
        <time>2021-11-20T07:48:20Z</time>
      </trkpt>
      <trkpt lat="43.42947" lon="2.74834">
        <ele>668</ele>
        <time>2021-11-20T07:48:20Z</time>
      </trkpt>
      <trkpt lat="43.42926" lon="2.74815">
        <ele>663</ele>
        <time>2021-11-20T07:48:20Z</time>
      </trkpt>
      <trkpt lat="43.4288" lon="2.74784">
        <ele>651</ele>
        <time>2021-11-20T07:48:20Z</time>
      </trkpt>
      <trkpt lat="43.42804" lon="2.74718">
        <ele>632</ele>
        <time>2021-11-20T07:48:20Z</time>
      </trkpt>
      <trkpt lat="43.42758" lon="2.74677">
        <ele>625</ele>
        <time>2021-11-20T07:48:20Z</time>
      </trkpt>
      <trkpt lat="43.42704" lon="2.74628">
        <ele>622</ele>
        <time>2021-11-20T07:48:20Z</time>
      </trkpt>
      <trkpt lat="43.42685" lon="2.7463">
        <ele>620</ele>
        <time>2021-11-20T07:48:20Z</time>
      </trkpt>
      <trkpt lat="43.42668" lon="2.74643">
        <ele>618</ele>
        <time>2021-11-20T07:48:20Z</time>
      </trkpt>
      <trkpt lat="43.42658" lon="2.74657">
        <ele>615</ele>
        <time>2021-11-20T07:48:20Z</time>
      </trkpt>
      <trkpt lat="43.42649" lon="2.74665">
        <ele>614</ele>
        <time>2021-11-20T07:48:20Z</time>
      </trkpt>
      <trkpt lat="43.42638" lon="2.74667">
        <ele>612</ele>
        <time>2021-11-20T07:48:20Z</time>
      </trkpt>
      <trkpt lat="43.42621" lon="2.74667">
        <ele>609</ele>
        <time>2021-11-20T07:48:20Z</time>
      </trkpt>
      <trkpt lat="43.4261" lon="2.74675">
        <ele>607</ele>
        <time>2021-11-20T07:48:20Z</time>
      </trkpt>
      <trkpt lat="43.42601" lon="2.74685">
        <ele>605</ele>
        <time>2021-11-20T07:48:20Z</time>
      </trkpt>
      <trkpt lat="43.42587" lon="2.74693">
        <ele>602</ele>
        <time>2021-11-20T07:48:20Z</time>
      </trkpt>
      <trkpt lat="43.42569" lon="2.74704">
        <ele>598</ele>
        <time>2021-11-20T07:48:20Z</time>
      </trkpt>
      <trkpt lat="43.42551" lon="2.7471">
        <ele>596</ele>
        <time>2021-11-20T07:48:20Z</time>
      </trkpt>
      <trkpt lat="43.42536" lon="2.7472">
        <ele>592</ele>
        <time>2021-11-20T07:48:20Z</time>
      </trkpt>
      <trkpt lat="43.42514" lon="2.74727">
        <ele>588</ele>
        <time>2021-11-20T07:48:20Z</time>
      </trkpt>
      <trkpt lat="43.42503" lon="2.74731">
        <ele>586</ele>
        <time>2021-11-20T07:48:20Z</time>
      </trkpt>
      <trkpt lat="43.4249" lon="2.74733">
        <ele>584</ele>
        <time>2021-11-20T07:48:20Z</time>
      </trkpt>
      <trkpt lat="43.42462" lon="2.74731">
        <ele>579</ele>
        <time>2021-11-20T07:48:20Z</time>
      </trkpt>
      <trkpt lat="43.42446" lon="2.74735">
        <ele>576</ele>
        <time>2021-11-20T07:48:20Z</time>
      </trkpt>
      <trkpt lat="43.4243" lon="2.74736">
        <ele>573</ele>
        <time>2021-11-20T07:48:20Z</time>
      </trkpt>
      <trkpt lat="43.42408" lon="2.74727">
        <ele>571</ele>
        <time>2021-11-20T07:48:20Z</time>
      </trkpt>
      <trkpt lat="43.424" lon="2.74727">
        <ele>569</ele>
        <time>2021-11-20T07:48:20Z</time>
      </trkpt>
      <trkpt lat="43.42388" lon="2.7471">
        <ele>570</ele>
        <time>2021-11-20T07:48:20Z</time>
      </trkpt>
      <trkpt lat="43.42365" lon="2.74688">
        <ele>569</ele>
        <time>2021-11-20T07:48:20Z</time>
      </trkpt>
      <trkpt lat="43.42339" lon="2.74654">
        <ele>568</ele>
        <time>2021-11-20T07:48:20Z</time>
      </trkpt>
      <trkpt lat="43.42325" lon="2.7463">
        <ele>566</ele>
        <time>2021-11-20T07:48:20Z</time>
      </trkpt>
      <trkpt lat="43.42317" lon="2.74622">
        <ele>564</ele>
        <time>2021-11-20T07:48:20Z</time>
      </trkpt>
      <trkpt lat="43.42294" lon="2.74591">
        <ele>558</ele>
        <time>2021-11-20T07:48:20Z</time>
      </trkpt>
      <trkpt lat="43.42279" lon="2.74563">
        <ele>554</ele>
        <time>2021-11-20T07:48:20Z</time>
      </trkpt>
      <trkpt lat="43.42276" lon="2.74551">
        <ele>553</ele>
        <time>2021-11-20T07:48:20Z</time>
      </trkpt>
      <trkpt lat="43.42263" lon="2.74549">
        <ele>549</ele>
        <time>2021-11-20T07:48:20Z</time>
      </trkpt>
      <trkpt lat="43.42251" lon="2.74538">
        <ele>545</ele>
        <time>2021-11-20T07:48:20Z</time>
      </trkpt>
      <trkpt lat="43.42243" lon="2.74527">
        <ele>542</ele>
        <time>2021-11-20T07:48:20Z</time>
      </trkpt>
      <trkpt lat="43.42235" lon="2.74523">
        <ele>538</ele>
        <time>2021-11-20T07:48:20Z</time>
      </trkpt>
      <trkpt lat="43.4222" lon="2.74561">
        <ele>537</ele>
        <time>2021-11-20T07:48:20Z</time>
      </trkpt>
      <trkpt lat="43.42222" lon="2.74499">
        <ele>530</ele>
        <time>2021-11-20T07:48:20Z</time>
      </trkpt>
      <trkpt lat="43.42226" lon="2.74484">
        <ele>528</ele>
        <time>2021-11-20T07:48:20Z</time>
      </trkpt>
      <trkpt lat="43.42241" lon="2.74469">
        <ele>528</ele>
        <time>2021-11-20T07:48:20Z</time>
      </trkpt>
      <trkpt lat="43.42268" lon="2.74454">
        <ele>530</ele>
        <time>2021-11-20T07:48:20Z</time>
      </trkpt>
      <trkpt lat="43.42291" lon="2.74424">
        <ele>530</ele>
        <time>2021-11-20T07:48:20Z</time>
      </trkpt>
      <trkpt lat="43.42325" lon="2.7431">
        <ele>526</ele>
        <time>2021-11-20T07:48:20Z</time>
      </trkpt>
      <trkpt lat="43.42333" lon="2.74295">
        <ele>527</ele>
        <time>2021-11-20T07:48:20Z</time>
      </trkpt>
      <trkpt lat="43.42372" lon="2.7419">
        <ele>524</ele>
        <time>2021-11-20T07:48:20Z</time>
      </trkpt>
      <trkpt lat="43.42406" lon="2.74163">
        <ele>525</ele>
        <time>2021-11-20T07:48:20Z</time>
      </trkpt>
      <trkpt lat="43.42375" lon="2.74175">
        <ele>524</ele>
        <time>2021-11-20T07:48:20Z</time>
      </trkpt>
      <trkpt lat="43.42327" lon="2.74214">
        <ele>523</ele>
        <time>2021-11-20T07:48:20Z</time>
      </trkpt>
      <trkpt lat="43.42314" lon="2.74218">
        <ele>522</ele>
        <time>2021-11-20T07:48:20Z</time>
      </trkpt>
      <trkpt lat="43.42306" lon="2.74227">
        <ele>522</ele>
        <time>2021-11-20T07:48:20Z</time>
      </trkpt>
      <trkpt lat="43.42294" lon="2.74233">
        <ele>522</ele>
        <time>2021-11-20T07:48:20Z</time>
      </trkpt>
      <trkpt lat="43.42288" lon="2.74242">
        <ele>522</ele>
        <time>2021-11-20T07:48:20Z</time>
      </trkpt>
      <trkpt lat="43.42277" lon="2.7427">
        <ele>519</ele>
        <time>2021-11-20T07:48:20Z</time>
      </trkpt>
      <trkpt lat="43.4225" lon="2.74364">
        <ele>516</ele>
        <time>2021-11-20T07:48:20Z</time>
      </trkpt>
      <trkpt lat="43.42216" lon="2.74407">
        <ele>514</ele>
        <time>2021-11-20T07:48:20Z</time>
      </trkpt>
      <trkpt lat="43.42195" lon="2.74415">
        <ele>512</ele>
        <time>2021-11-20T07:48:20Z</time>
      </trkpt>
      <trkpt lat="43.42172" lon="2.74418">
        <ele>511</ele>
        <time>2021-11-20T07:48:20Z</time>
      </trkpt>
      <trkpt lat="43.42159" lon="2.74411">
        <ele>510</ele>
        <time>2021-11-20T07:48:20Z</time>
      </trkpt>
      <trkpt lat="43.42128" lon="2.74422">
        <ele>506</ele>
        <time>2021-11-20T07:48:20Z</time>
      </trkpt>
      <trkpt lat="43.42049" lon="2.74418">
        <ele>500</ele>
        <time>2021-11-20T07:48:20Z</time>
      </trkpt>
    </trkseg>
  </trk>
</gpx>